This is the latest recevied weather packets stored in our database for station/object K7D3. If no packets are shown the sender has not sent any weather packets the latest 10 day(s).
| Time | Temp. | Humidity | Pressure | Rain* | Wind** | Luminosity | Snow |
|---|---|---|---|---|---|---|---|
| 1777829790 | 13.89° C | 46% | - | 0 mm | 6.71 m/s, 308° | - | - |
| 1777829312 | 13.89° C | 48% | - | 0 mm | 4.47 m/s, 307° | - | - |
| 1777828833 | 13.89° C | 49% | - | 0 mm | 5.81 m/s, 243° | - | - |
| 1777828351 | 13.33° C | 48% | - | 0 mm | 5.81 m/s, 304° | - | - |
| 1777827872 | 13.33° C | 48% | - | 0 mm | 6.71 m/s, 312° | - | - |
| 1777827393 | 13.89° C | 49% | - | 0 mm | 4.92 m/s, 291° | - | - |
| 1777826911 | 13.89° C | 49% | - | 0 mm | 5.81 m/s, 311° | - | - |
| 1777826433 | 13.33° C | 52% | - | 0 mm | 3.13 m/s, 278° | - | - |
| 1777825954 | 12.78° C | 50% | - | 0 mm | 5.36 m/s, 293° | - | - |
| 1777825472 | 12.78° C | 50% | - | 0 mm | 5.36 m/s, 276° | - | - |
| 1777824994 | 12.22° C | 50% | - | 0 mm | 5.36 m/s, 301° | - | - |
| 1777824515 | 12.22° C | 49% | - | 0 mm | 4.92 m/s, 287° | - | - |
| 1777824033 | 11.67° C | 48% | - | 0 mm | 6.71 m/s, 281° | - | - |
| 1777823554 | 12.22° C | 50% | - | 0 mm | 5.81 m/s, 319° | - | - |
| 1777823076 | 11.67° C | 50% | - | 0 mm | 4.47 m/s, 262° | - | - |
| 1777822593 | 11.11° C | 54% | - | 0 mm | 5.36 m/s, 255° | - | - |
| 1777822115 | 11.11° C | 54% | - | 0 mm | 5.36 m/s, 260° | - | - |
| 1777821636 | 11.11° C | 53% | - | 0 mm | 4.92 m/s, 256° | - | - |
| 1777821154 | 10.56° C | 56% | - | 0 mm | 3.58 m/s, 290° | - | - |
| 1777820675 | 10.56° C | 57% | - | 0 mm | 4.02 m/s, 250° | - | - |
| 1777820196 | 10° C | 61% | - | 0 mm | 4.47 m/s, 298° | - | - |
| 1777819714 | 9.44° C | 63% | - | 0 mm | 4.47 m/s, 291° | - | - |
| 1777819235 | 9.44° C | 67% | - | 0 mm | 3.13 m/s, 284° | - | - |
| 1777818756 | 8.89° C | 70% | - | 0 mm | 3.13 m/s, 249° | - | - |
| 1777818272 | 8.33° C | 74% | - | 0 mm | 2.68 m/s, 264° | - | - |
* Rain latest hour (hover to see other rain measurements)
** Current wind speed in m/s (hover to see current wind gust speed)